[[{"header":{"parameterUnit":"m.s-1","parameterCategory":1,"la1":30.2991,"la2":30.254,"lo1":-89.0895,"lo2":-89.0444,"dy":0.0017,"dx":0.0017,"nx":28,"ny":28,"refTime":"2024-12-03T03:00:00:Z","depth":0,"parameterNumber":2,"parameterNumberName":"U-component_of_WINDS"},"data":[0,0,0,0,0,0,0,0,0,0,0,0,0,0,0,0,0,0,0,0,0,0,0,0,0,0,0,0,0,0,0,0,0,0,0,0,0,0,0,0,0,0,0,0,0,0,0,0,0,0,0,0,0,0,0,0,0,0,-2.0357,-2.0357,0,-2.0415,-2.0416,-2.0416,-2.0338,-2.0336,-2.0333,-2.033,-2.039,-2.0394,-2.0398,0,0,0,0,0,0,0,0,0,0,0,0,0,-2.0178,-2.0181,-2.0357,-2.0357,-2.0358,-2.0415,-2.0416,-2.0416,-2.0339,-2.0335,-2.0332,-2.0329,-2.0389,-2.0394,-2.0399,0,0,0,0,0,0,0,0,0,0,0,0,0,-2.0248,-2.0183,-2.0357,-2.0326,-2.0324,-2.0415,-2.0416,-2.0417,-2.034,-2.0335,-2.0331,-2.0327,-2.0387,-2.0393,-2.0399,-2.0522,0,0,-2.0419,-2.0421,0,0,0,0,0,0,0,0,-2.0244,-2.0254,-2.033,-2.0329,-2.0326,-2.0365,-2.0374,-2.0452,-2.0341,-2.0334,-2.033,-2.0325,-2.0385,-2.0391,-2.0411,-2.0525,-2.0528,-2.0419,-2.0423,-2.0426,-2.0427,0,0,0,0,0,0,0,-2.0239,-2.0251,-2.038,-2.0331,-2.0329,-2.031,-2.0315,-2.0389,-2.0382,-2.0334,-2.0328,-2.0336,-2.0383,-2.0406,-2.0412,-2.0529,-2.0419,-2.0425,-2.0428,-2.0431,-2.0746,-2.0751,0,0,0,0,0,0,-2.0238,-2.0248,-2.0378,-2.0381,-2.0274,-2.0316,-2.0322,-2.0357,-2.0381,-2.0381,-2.034,-2.0333,-2.0397,-2.0405,-2.0414,-2.0561,-2.0426,-2.0432,-2.0435,-2.0742,-2.0748,-2.0752,0,0,0,0,0,0,-2.0234,-2.025,-2.0375,-2.0313,-2.0328,-2.0324,-2.0363,-2.036,-2.0382,-2.0386,-2.0384,-2.0364,-2.0394,-2.0405,-2.0496,-2.0562,-2.0434,-2.044,-2.0737,-2.0744,-2.075,-2.0855,0,0,0,0,0,0,-2.023,-2.0249,-2.0297,-2.0315,-2.0331,-2.0457,-2.0367,-2.0364,-2.0394,-2.0385,-2.0408,-2.0408,-2.0391,-2.0487,-2.0502,-2.0568,-2.0445,-2.0731,-2.074,-2.0748,-2.0846,-2.0865,-2.0881,0,0,0,0,0,-2.0223,-2.0324,-2.0299,-2.0315,-2.039,-2.0461,-2.0471,-2.045,-2.0399,-2.0447,-2.0448,-2.0407,-2.0551,-2.0497,-2.0514,-2.0582,-2.0727,-2.0737,-2.0747,-2.0838,-2.0861,-2.0881,0,0,0,0,0,0,-2.0314,-2.0326,-2.0299,-2.0408,-2.0434,-2.0448,-2.0507,-2.0475,-2.0516,-2.0506,-2.0478,-2.0484,-2.0581,-2.059,-2.0529,-2.0703,-2.0631,-2.0645,-2.0694,-2.0716,-2.0733,-2.073,-2.045,0,0,0,0,0,-2.0346,-2.0403,-2.041,-2.0506,-2.052,-2.0512,-2.0542,-2.0523,-2.0549,-2.056,-2.0568,-2.0595,-2.0646,-2.0681,-2.0728,-2.0845,-2.085,-2.0901,-2.0918,-2.0933,-2.0946,-2.1009,-2.1032,-2.0786,-2.0786,-2.0786,0,0,-2.0414,-2.0428,-2.0465,-2.0524,-2.0542,-2.0602,-2.0522,-2.0588,-2.0632,-2.057,-2.0657,-2.0664,-2.0692,-2.0797,-2.0843,-2.0807,-2.1015,-2.0946,-2.0957,-2.0963,-2.1022,-2.1046,-2.1067,-2.0793,-2.0792,-2.0791,0,0,-2.0569,-2.0584,-2.0667,-2.0686,-2.0714,-2.0708,-2.0727,-2.0746,-2.0748,-2.0835,-2.0789,-2.0841,-2.093,-2.0952,-2.0975,-2.1136,-2.11,-2.1152,-2.1245,-2.1307,-2.1327,-2.1344,-2.1403,-2.1424,-2.1165,-2.1165,-2.1165,0,-2.0651,-2.0739,-2.0713,-2.0783,-2.081,-2.0756,-2.0839,-2.0859,-2.0901,-2.0921,-2.088,-2.099,-2.1005,-2.1115,-2.1154,-2.1174,-2.1196,-2.1151,-2.1326,-2.1343,-2.1358,-2.1415,-2.1437,-2.1172,-2.1171,-2.117,-2.117,0,-2.0838,-2.09,-2.0962,-2.1005,-2.1039,-2.1115,-2.11,-2.1138,-2.1116,-2.1113,-2.1202,-2.1217,-2.1267,-2.1291,-2.127,-2.1398,-2.1375,-2.133,-2.1258,-2.1389,-2.1441,-2.1462,-2.1181,-2.1178,-2.1176,-2.1175,0,0,-2.1054,-2.108,-2.1104,-2.1123,-2.1149,-2.1197,-2.1269,-2.1318,-2.1351,-2.1381,-2.1443,-2.1519,-2.1477,-2.1503,-2.1484,-2.1538,-2.1667,-2.1486,-2.1486,-2.1521,-2.181,-2.1845,-2.1871,-2.1641,-2.1645,-2.1648,-2.1808,0,-2.1211,-2.1338,-2.1316,-2.144,-2.1497,-2.1445,-2.1509,-2.1532,-2.1531,-2.1579,-2.1577,-2.1632,-2.1572,-2.1588,-2.1639,-2.164,-2.1725,-2.1628,-2.1699,-2.1702,-2.1697,-2.1898,-2.1935,-2.2085,-2.1828,-2.1831,-2.1834,0,-2.1411,-2.145,-2.1579,-2.1596,-2.1619,-2.1677,-2.172,-2.1766,-2.1791,-2.1786,-2.1815,-2.1785,-2.1857,-2.1782,-2.1882,-2.1817,-2.1844,-2.1848,-2.1854,-2.1862,-2.1778,-2.1913,-2.2132,-2.2156,-2.1866,-2.1863,-2.1861,0,-2.1559,-2.1642,-2.173,-2.1748,-2.177,-2.1812,-2.1823,-2.1843,-2.1873,-2.191,-2.193,-2.1974,-2.1999,-2.2034,-2.2017,-2.1963,-2.2121,-2.2043,-2.212,-2.2121,-2.2158,-2.2157,-2.2387,-2.2172,-2.2171,-2.2171,-2.2171,0,-2.1738,-2.182,-2.1797,-2.1852,-2.1942,-2.1915,-2.2004,-2.2009,-2.2027,-2.2082,-2.2038,-2.209,-2.2063,-2.2113,-2.21,-2.2185,-2.2196,-2.2195,-2.2191,-2.2201,-2.2201,-2.222,-2.221,-2.2177,-2.2176,-2.2174,-2.2173,0,-2.1919,-2.1907,-2.2,-2.2013,-2.2018,-2.2084,-2.2094,-2.2146,-2.214,-2.221,-2.2224,-2.2217,-2.2273,-2.2259,-2.232,-2.2311,-2.2419,-2.2401,-2.2412,-2.2408,-2.2486,-2.248,-2.274,-2.2773,-2.2534,-2.2536,-2.2538,0,-2.2036,-2.2097,-2.2116,-2.215,-2.2164,-2.2218,-2.2249,-2.2224,-2.2258,-2.229,-2.2338,-2.239,-2.2431,-2.2523,-2.2523,-2.257,-2.2553,-2.2641,-2.256,-2.2568,-2.2557,-2.2555,-2.2561,-2.2658,-2.2661,-2.2663,-2.2665,0,-2.2244,-2.2235,-2.2281,-2.2325,-2.2363,-2.2397,-2.2426,-2.2456,-2.2433,-2.2473,-2.253,-2.2562,-2.2624,-2.2677,-2.272,-2.273,-2.2695,-2.2689,-2.271,-2.2722,-2.2726,-2.2727,-2.2458,-2.2684,-2.2682,-2.2681,-2.268,-2.2679,-2.2398,-2.245,-2.2472,-2.2525,-2.2544,-2.2573,-2.2622,-2.2622,-2.2669,-2.2719,-2.27,-2.2766,-2.2788,-2.2841,-2.2857,-2.2908,-2.2875,-2.2904,-2.2912,-2.292,-2.2931,-2.2716,-2.2915,-2.2914,-2.2914,-2.2913,-2.2913,0,-2.2606,-2.2617,-2.2665,-2.2708,-2.275,-2.2711,-2.2741,-2.2779,-2.2837,-2.286,-2.2901,-2.2967,-2.3018,-2.3021,-2.3068,-2.3108,-2.3093,-2.3122,-2.312,-2.3123,-2.2957,-2.2935,-2.3133,-2.3133,-2.3133,-2.3133,-2.3133,-2.3133,-2.2719,-2.2807,-2.28,-2.2896,-2.2906,-2.297,-2.2991,-2.3017,-2.3036,-2.3111,-2.3153,-2.3154,-2.3169,-2.3217,-2.3262,-2.3261,-2.3282,-2.3318,-2.3311,-2.3157,-2.3135,-2.3114,-2.3094,-2.3322,-2.3322,-2.3473,-2.3474,-2.3476]},{"header":{"parameterUnit":"m.s-1","parameterCategory":1,"la1":30.2991,"la2":30.254,"lo1":-89.0895,"lo2":-89.0444,"dy":0.0017,"dx":0.0017,"nx":28,"ny":28,"refTime":"2024-12-03T03:00:00:Z","depth":0,"parameterNumber":3,"parameterNumberName":"V-component_of_WINDS"},"data":[0,0,0,0,0,0,0,0,0,0,0,0,0,0,0,0,0,0,0,0,0,0,0,0,0,0,0,0,0,0,0,0,0,0,0,0,0,0,0,0,0,0,0,0,0,0,0,0,0,0,0,0,0,0,0,0,0,0,-5.5065,-5.5067,0,-5.5177,-5.5178,-5.5179,-5.5099,-5.5096,-5.5092,-5.5089,-5.5197,-5.5203,-5.5209,0,0,0,0,0,0,0,0,0,0,0,0,0,-5.4776,-5.4782,-5.5065,-5.5067,-5.5068,-5.5177,-5.5178,-5.518,-5.51,-5.5096,-5.5091,-5.5087,-5.5195,-5.5202,-5.5209,0,0,0,0,0,0,0,0,0,0,0,0,0,-5.4896,-5.4784,-5.5065,-5.5042,-5.5041,-5.5176,-5.5178,-5.518,-5.5101,-5.5096,-5.509,-5.5085,-5.5192,-5.5201,-5.521,-5.5373,0,0,-5.5239,-5.5243,0,0,0,0,0,0,0,0,-5.4889,-5.4907,-5.5044,-5.5043,-5.5043,-5.5119,-5.5116,-5.5245,-5.5102,-5.5078,-5.5089,-5.5083,-5.5175,-5.5185,-5.5217,-5.5378,-5.5383,-5.5239,-5.5245,-5.5249,-5.5252,0,0,0,0,0,0,0,-5.4881,-5.4901,-5.5109,-5.5046,-5.5045,-5.5023,-5.5034,-5.514,-5.5154,-5.5079,-5.5074,-5.5089,-5.5173,-5.5209,-5.5219,-5.5385,-5.5239,-5.5247,-5.5253,-5.5257,-5.5685,-5.569,0,0,0,0,0,0,-5.4876,-5.4895,-5.5106,-5.5112,-5.4952,-5.5033,-5.5045,-5.51,-5.5153,-5.5156,-5.5093,-5.5084,-5.5195,-5.5209,-5.5223,-5.5418,-5.5249,-5.5258,-5.5263,-5.5679,-5.5686,-5.5692,0,0,0,0,0,0,-5.487,-5.4895,-5.5101,-5.5002,-5.5027,-5.5043,-5.5105,-5.5105,-5.514,-5.5163,-5.5165,-5.5127,-5.5192,-5.521,-5.5337,-5.542,-5.5262,-5.527,-5.5672,-5.5681,-5.5689,-5.5808,0,0,0,0,0,0,-5.4862,-5.4894,-5.4958,-5.5005,-5.5033,-5.5216,-5.511,-5.5111,-5.5157,-5.5147,-5.5196,-5.5199,-5.5189,-5.5324,-5.5346,-5.543,-5.5277,-5.5664,-5.5676,-5.5686,-5.5797,-5.582,-5.584,0,0,0,0,0,-5.4852,-5.4985,-5.4961,-5.4987,-5.5113,-5.5221,-5.5237,-5.5225,-5.5164,-5.5227,-5.5242,-5.5197,-5.5407,-5.5337,-5.5362,-5.545,-5.5659,-5.5673,-5.5685,-5.5788,-5.5816,-5.5839,0,0,0,0,0,0,-5.4945,-5.4991,-5.4965,-5.5118,-5.5167,-5.5207,-5.5287,-5.5255,-5.532,-5.5308,-5.5288,-5.53,-5.5433,-5.5454,-5.5375,-5.561,-5.5523,-5.5542,-5.5592,-5.5619,-5.564,-5.5633,-5.5285,0,0,0,0,0,-5.4984,-5.5071,-5.5104,-5.5236,-5.5262,-5.5271,-5.5317,-5.5304,-5.5352,-5.5372,-5.5396,-5.5443,-5.5519,-5.557,-5.5642,-5.5799,-5.5808,-5.5872,-5.5893,-5.591,-5.5927,-5.6011,-5.604,-5.5735,-5.5735,-5.5735,0,0,-5.5065,-5.51,-5.5155,-5.5256,-5.5292,-5.538,-5.5288,-5.5385,-5.5449,-5.5386,-5.5508,-5.5528,-5.5578,-5.5722,-5.5786,-5.5743,-5.6013,-5.5927,-5.5941,-5.5948,-5.6028,-5.6057,-5.6082,-5.5744,-5.5742,-5.5741,0,0,-5.5256,-5.5292,-5.5406,-5.5444,-5.5501,-5.5506,-5.5533,-5.5579,-5.559,-5.5713,-5.5668,-5.5742,-5.5875,-5.5913,-5.595,-5.6156,-5.6117,-5.618,-5.6291,-5.6374,-5.6398,-5.6419,-5.6493,-5.652,-5.6196,-5.6196,-5.6196,0,-5.5348,-5.5481,-5.5468,-5.5569,-5.5614,-5.5562,-5.5677,-5.5713,-5.579,-5.5821,-5.5772,-5.5938,-5.5968,-5.612,-5.617,-5.6202,-5.6231,-5.6174,-5.6396,-5.6417,-5.6437,-5.6507,-5.6534,-5.6203,-5.6203,-5.6202,-5.6201,0,-5.5592,-5.5684,-5.5769,-5.5847,-5.5901,-5.6008,-5.6009,-5.6065,-5.6047,-5.6056,-5.6181,-5.6216,-5.6294,-5.6329,-5.6311,-5.6478,-5.645,-5.6399,-5.6311,-5.6473,-5.6539,-5.6566,-5.6214,-5.6211,-5.6209,-5.6207,0,0,-5.5846,-5.5916,-5.5947,-5.5982,-5.604,-5.611,-5.6214,-5.6292,-5.6341,-5.6395,-5.648,-5.6594,-5.6547,-5.6589,-5.6575,-5.6648,-5.6809,-5.6588,-5.6588,-5.6628,-5.6994,-5.7033,-5.7064,-5.6783,-5.6788,-5.6792,-5.699,0,-5.6041,-5.6225,-5.6216,-5.6387,-5.6472,-5.6424,-5.6514,-5.6558,-5.657,-5.6641,-5.6652,-5.6733,-5.6666,-5.6691,-5.676,-5.6775,-5.6882,-5.676,-5.6861,-5.6865,-5.6851,-5.7098,-5.714,-5.7325,-5.7016,-5.702,-5.7023,0,-5.6294,-5.6359,-5.654,-5.6586,-5.6621,-5.6703,-5.6774,-5.6843,-5.6892,-5.6895,-5.6942,-5.6916,-5.7019,-5.6928,-5.7069,-5.6986,-5.7026,-5.7039,-5.7046,-5.7055,-5.6954,-5.7115,-5.7384,-5.7413,-5.7063,-5.706,-5.7057,0,-5.6462,-5.6594,-5.672,-5.6751,-5.6808,-5.6866,-5.6892,-5.6936,-5.6984,-5.7045,-5.7075,-5.7147,-5.7186,-5.7241,-5.7234,-5.7169,-5.7377,-5.7285,-5.7381,-5.7381,-5.7427,-5.7425,-5.7708,-5.7453,-5.7452,-5.7452,-5.7451,0,-5.6681,-5.6793,-5.6796,-5.6874,-5.6997,-5.6984,-5.7107,-5.7126,-5.7165,-5.7243,-5.7205,-5.7279,-5.7265,-5.7338,-5.7333,-5.745,-5.7468,-5.7472,-5.7469,-5.7476,-5.7476,-5.7503,-5.749,-5.7459,-5.7458,-5.7456,-5.7455,0,-5.689,-5.6897,-5.703,-5.7074,-5.7087,-5.7177,-5.7213,-5.7285,-5.7292,-5.7392,-5.7415,-5.7426,-5.7511,-5.7509,-5.7604,-5.7601,-5.7744,-5.7726,-5.7729,-5.7726,-5.7822,-5.7813,-5.8132,-5.8173,-5.7891,-5.7894,-5.7896,0,-5.703,-5.7116,-5.717,-5.7221,-5.7251,-5.7333,-5.7383,-5.7372,-5.7425,-5.7487,-5.7551,-5.7632,-5.7697,-5.7833,-5.7849,-5.7921,-5.7905,-5.8012,-5.7915,-5.7919,-5.7907,-5.7902,-5.791,-5.8031,-5.8034,-5.8036,-5.8038,0,-5.7278,-5.7278,-5.7351,-5.7427,-5.7487,-5.7546,-5.7599,-5.7642,-5.7637,-5.7698,-5.7785,-5.7835,-5.7933,-5.8014,-5.8083,-5.8107,-5.8072,-5.8069,-5.8095,-5.8103,-5.8101,-5.8104,-5.7781,-5.8061,-5.8059,-5.8057,-5.8056,-5.8055,-5.7458,-5.7532,-5.7582,-5.7665,-5.7704,-5.7755,-5.7826,-5.7843,-5.7916,-5.7997,-5.7985,-5.8083,-5.8128,-5.8218,-5.8248,-5.8322,-5.8284,-5.8322,-5.8332,-5.8341,-5.8352,-5.8089,-5.8335,-5.8334,-5.8333,-5.8333,-5.8332,0,-5.7704,-5.7734,-5.7811,-5.7888,-5.7954,-5.7917,-5.7974,-5.803,-5.8117,-5.8163,-5.8228,-5.8328,-5.8406,-5.8428,-5.8502,-5.8557,-5.8543,-5.8577,-5.8573,-5.8579,-5.8382,-5.8352,-5.8588,-5.8588,-5.8588,-5.8588,-5.8588,-5.8587,-5.784,-5.7964,-5.7969,-5.8111,-5.8139,-5.8236,-5.8272,-5.8318,-5.8355,-5.8469,-5.8535,-5.8549,-5.8585,-5.8662,-5.8732,-5.8736,-5.8765,-5.8806,-5.8804,-5.8619,-5.8593,-5.8569,-5.8541,-5.8813,-5.8813,-5.8995,-5.8997,-5.8998]}]]